GSAT0214 (GALILEO 18)

Last updated on Fri Oct 11 2024 00:02:28 GMT+0000 (Coordinated Universal Time)

1 41862U 16069D 24283.20110827 .00000060 00000+0 00000+0 0 9997 2 41862 55.1406 118.1510 0000806 288.7499 71.3136 1.70474346 49147
UTC large
Height (km)
Speed (km/s)
/
Latitude / Longitude
Inclination (degrees)
Orbital Period (minutes)
Azimuth
Elevation
Range (km)
Doppler Factor

Next 0 passes for location: London (51.5072 / 0.1276)

Sorry there are no passes over London.